| time (UTC) | temp C | wind direction | speed KPH | gust KPH | rain 1hr cm | rain 24hr cm | rain mn cm | humidity % | barometer mb |
| 20260504215125 | 23 | 269 | 1.6 | 9.7 | 0.00 | 0.00 | 0.00 | 41 | 1017.6 |
| 20260504214620 | 23 | 235 | 3.2 | 9.7 | 0.00 | 0.00 | 0.00 | 41 | 1017.7 |
| 20260504214117 | 24 | 287 | 1.6 | 3.2 | 0.00 | 0.00 | 0.00 | 42 | 1017.5 |
| 20260504213613 | 24 | 260 | 4.8 | 9.7 | 0.00 | 0.00 | 0.00 | 41 | 1017.7 |
| 20260504213110 | 25 | 204 | 4.8 | 8.0 | 0.00 | 0.00 | 0.00 | 40 | 1017.7 |
| 20260504212606 | 24 | 272 | 0.0 | 4.8 | 0.00 | 0.00 | 0.00 | 41 | 1017.8 |
| 20260504212103 | 24 | 272 | 4.8 | 4.8 | 0.00 | 0.00 | 0.00 | 41 | 1017.8 |
| 20260504211601 | 24 | 289 | 3.2 | 3.2 | 0.00 | 0.00 | 0.00 | 41 | 1017.8 |
| 20260504211057 | 25 | 215 | 3.2 | 4.8 | 0.00 | 0.00 | 0.00 | 40 | 1017.7 |
| 20260504210555 | 25 | 285 | 4.8 | 9.7 | 0.00 | 0.00 | 0.00 | 41 | 1017.7 |
| 20260504210051 | 24 | 236 | 1.6 | 4.8 | 0.00 | 0.00 | 0.00 | 41 | 1017.6 |
| 20260504205549 | 24 | 219 | 1.6 | 9.7 | 0.00 | 0.00 | 0.00 | 41 | 1017.7 |
| 20260504205047 | 25 | 182 | 1.6 | 8.0 | 0.00 | 0.00 | 0.00 | 40 | 1017.8 |
| 20260504204544 | 24 | 202 | 4.8 | 8.0 | 0.00 | 0.00 | 0.00 | 40 | 1018.0 |
| 20260504204043 | 24 | 229 | 1.6 | 8.0 | 0.00 | 0.00 | 0.00 | 41 | 1018.0 |
| 20260504203541 | 24 | 257 | 1.6 | 12.9 | 0.00 | 0.00 | 0.00 | 39 | 1018.0 |
| 20260504203038 | 24 | 270 | 1.6 | 4.8 | 0.00 | 0.00 | 0.00 | 39 | 1018.0 |
| 20260504202533 | 25 | 240 | 3.2 | 3.2 | 0.00 | 0.00 | 0.00 | 42 | 1018.1 |
| 20260504202031 | 24 | 243 | 4.8 | 8.0 | 0.00 | 0.00 | 0.00 | 41 | 1018.2 |
| 20260504201527 | 24 | 238 | 6.4 | 12.9 | 0.00 | 0.00 | 0.00 | 40 | 1018.2 |
| 20260504201026 | 24 | 175 | 11.3 | 12.9 | 0.00 | 0.00 | 0.00 | 40 | 1018.3 |
| 20260504200521 | 24 | 213 | 6.4 | 14.5 | 0.00 | 0.00 | 0.00 | 41 | 1018.3 |
| 20260504200018 | 24 | 266 | 0.0 | 4.8 | 0.00 | 0.00 | 0.00 | 42 | 1018.4 |
| 20260504195514 | 24 | 190 | 6.4 | 9.7 | 0.00 | 0.00 | 0.00 | 42 | 1018.3 |
| 20260504195011 | 23 | 289 | 0.0 | 1.6 | 0.00 | 0.00 | 0.00 | 44 | 1018.3 |
| 20260504194508 | 23 | 246 | 1.6 | 11.3 | 0.00 | 0.00 | 0.00 | 42 | 1018.4 |
| 20260504194003 | 24 | 249 | 0.0 | 8.0 | 0.00 | 0.00 | 0.00 | 41 | 1018.6 |
| 20260504193500 | 24 | 273 | 0.0 | 3.2 | 0.00 | 0.00 | 0.00 | 43 | 1018.6 |
| 20260504192959 | 23 | 300 | 1.6 | 3.2 | 0.00 | 0.00 | 0.00 | 43 | 1018.9 |
| 20260504192456 | 23 | 307 | 0.0 | 3.2 | 0.00 | 0.00 | 0.00 | 46 | 1018.5 |
| 20260504191955 | 23 | 158 | 8.0 | 11.3 | 0.00 | 0.00 | 0.00 | 41 | 1018.8 |
| 20260504191452 | 24 | 293 | 3.2 | 3.2 | 0.00 | 0.00 | 0.00 | 43 | 1018.9 |
| 20260504190947 | 23 | 267 | 0.0 | 1.6 | 0.00 | 0.00 | 0.00 | 42 | 1018.9 |
| 20260504190443 | 23 | 252 | 0.0 | 11.3 | 0.00 | 0.00 | 0.00 | 42 | 1018.9 |
| 20260504185940 | 23 | 262 | 0.0 | 9.7 | 0.00 | 0.00 | 0.00 | 40 | 1019.2 |
| 20260504185438 | 23 | 258 | 0.0 | 4.8 | 0.00 | 0.00 | 0.00 | 42 | 1019.2 |
| 20260504184933 | 23 | 211 | 6.4 | 9.7 | 0.00 | 0.00 | 0.00 | 42 | 1019.3 |
| 20260504184429 | 23 | 207 | 4.8 | 11.3 | 0.00 | 0.00 | 0.00 | 42 | 1019.2 |
| 20260504183925 | 23 | 272 | 0.0 | 8.0 | 0.00 | 0.00 | 0.00 | 45 | 1019.5 |
| 20260504183423 | 23 | 42 | 1.6 | 3.2 | 0.00 | 0.00 | 0.00 | 45 | 1019.3 |
| 20260504182921 | 24 | 321 | 1.6 | 8.0 | 0.00 | 0.00 | 0.00 | 44 | 1019.4 |
| 20260504182417 | 24 | 258 | 6.4 | 16.1 | 0.00 | 0.00 | 0.00 | 44 | 1019.5 |
| 20260504181914 | 23 | 81 | 3.2 | 8.0 | 0.00 | 0.00 | 0.00 | 43 | 1019.7 |
| 20260504181412 | 23 | 230 | 4.8 | 11.3 | 0.00 | 0.00 | 0.00 | 42 | 1019.7 |
| 20260504180910 | 23 | 260 | 0.0 | 3.2 | 0.00 | 0.00 | 0.00 | 48 | 1019.8 |
| 20260504180409 | 23 | 233 | 4.8 | 4.8 | 0.00 | 0.00 | 0.00 | 45 | 1019.9 |
| 20260504175907 | 23 | 221 | 6.4 | 9.7 | 0.00 | 0.00 | 0.00 | 44 | 1019.9 |
| 20260504175403 | 23 | 270 | 1.6 | 8.0 | 0.00 | 0.00 | 0.00 | 45 | 1020.2 |
| 20260504174901 | 22 | 283 | 1.6 | 3.2 | 0.00 | 0.00 | 0.00 | 48 | 1020.1 |
| 20260504174358 | 23 | 263 | 0.0 | 3.2 | 0.00 | 0.00 | 0.00 | 43 | 1020.0 |
| 20260504173855 | 23 | 189 | 8.0 | 9.7 | 0.00 | 0.00 | 0.00 | 44 | 1020.0 |
| 20260504173352 | 23 | 272 | 3.2 | 4.8 | 0.00 | 0.00 | 0.00 | 47 | 1019.9 |
| 20260504172849 | 24 | 265 | 3.2 | 3.2 | 0.00 | 0.00 | 0.00 | 45 | 1020.2 |
| 20260504172345 | 23 | 162 | 6.4 | 8.0 | 0.00 | 0.00 | 0.00 | 46 | 1020.2 |
| 20260504171841 | 23 | 243 | 1.6 | 3.2 | 0.00 | 0.00 | 0.00 | 46 | 1020.2 |
| 20260504171339 | 23 | 228 | 0.0 | 4.8 | 0.00 | 0.00 | 0.00 | 45 | 1020.2 |
| 20260504170836 | 23 | 188 | 8.0 | 11.3 | 0.00 | 0.00 | 0.00 | 43 | 1020.4 |
| 20260504170332 | 23 | 263 | 1.6 | 3.2 | 0.00 | 0.00 | 0.00 | 47 | 1020.8 |
| 20260504160251 | 22 | 266 | 0.0 | 1.6 | 0.00 | 0.00 | 0.00 | 47 | 1021.3 |
| 20260504150716 | 20 | 181 | 3.2 | 8.0 | 0.00 | 0.00 | 0.00 | 51 | 1021.1 |
| 20260504150213 | 20 | 180 | 1.6 | 12.9 | 0.00 | 0.00 | 0.00 | 54 | 1021.5 |
| 20260504141142 | 17 | 226 | 6.4 | 14.5 | 0.00 | 0.00 | 0.00 | 57 | 1021.6 |
| 20260504140639 | 17 | 178 | 3.2 | 8.0 | 0.00 | 0.00 | 0.00 | 59 | 1021.8 |
| 20260504140134 | 17 | 235 | 1.6 | 14.5 | 0.00 | 0.00 | 0.00 | 59 | 1021.8 |
| 20260504130603 | 16 | 158 | 4.8 | 11.3 | 0.00 | 0.00 | 0.00 | 56 | 1021.7 |
| 20260504110451 | 13 | 261 | 0.0 | 1.6 | 0.00 | 0.00 | 0.00 | 56 | 1020.7 |
| 20260504100407 | 14 | 250 | 0.0 | 1.6 | 0.00 | 0.00 | 0.00 | 57 | 1020.8 |
| 20260504081800 | 13 | 278 | 0.0 | 0.0 | 0.00 | 0.00 | 0.00 | 61 | 1020.7 |
| 20260504081256 | 13 | 278 | 0.0 | 0.0 | 0.00 | 0.00 | 0.00 | 63 | 1020.6 |
| 20260504080753 | 13 | 278 | 0.0 | 0.0 | 0.00 | 0.00 | 0.00 | 62 | 1020.6 |
| 20260504080249 | 13 | 278 | 0.0 | 1.6 | 0.00 | 0.00 | 0.00 | 61 | 1020.8 |
| 20260504070217 | 11 | 300 | 0.0 | 0.0 | 0.00 | 0.00 | 0.00 | 75 | 1021.2 |
| 20260504060138 | 11 | 298 | 0.0 | 0.0 | 0.00 | 0.00 | 0.00 | 80 | 1021.9 |
| 20260504050606 | 11 | 298 | 0.0 | 0.0 | 0.00 | 0.00 | 0.00 | 75 | 1022.1 |
| 20260504045600 | 11 | 298 | 0.0 | 0.0 | 0.00 | 0.00 | 0.00 | 73 | 1022.0 |
| 20260504045055 | 11 | 298 | 0.0 | 0.0 | 0.00 | 0.00 | 0.00 | 72 | 1021.9 |
| 20260504044553 | 11 | 298 | 0.0 | 0.0 | 0.00 | 0.00 | 0.00 | 72 | 1022.0 |
| 20260504044049 | 11 | 298 | 0.0 | 0.0 | 0.00 | 0.00 | 0.00 | 72 | 1021.9 |
| 20260504043547 | 11 | 298 | 0.0 | 0.0 | 0.00 | 0.00 | 0.00 | 71 | 1022.1 |
| 20260504043044 | 12 | 298 | 0.0 | 0.0 | 0.00 | 0.00 | 0.00 | 73 | 1022.1 |
| 20260504042541 | 12 | 300 | 0.0 | 0.0 | 0.00 | 0.00 | 0.00 | 73 | 1022.3 |
| 20260504042038 | 12 | 300 | 0.0 | 0.0 | 0.00 | 0.00 | 0.00 | 71 | 1022.3 |
| 20260504041533 | 12 | 298 | 0.0 | 0.0 | 0.00 | 0.00 | 0.00 | 68 | 1022.3 |
| 20260504041030 | 12 | 298 | 0.0 | 0.0 | 0.00 | 0.00 | 0.00 | 66 | 1022.4 |
| 20260504040527 | 12 | 298 | 0.0 | 0.0 | 0.00 | 0.00 | 0.00 | 66 | 1022.1 |
| 20260504040024 | 12 | 298 | 0.0 | 0.0 | 0.00 | 0.00 | 0.00 | 70 | 1022.2 |
| 20260504035521 | 12 | 300 | 0.0 | 0.0 | 0.00 | 0.00 | 0.00 | 69 | 1022.2 |
| 20260504035017 | 12 | 298 | 0.0 | 0.0 | 0.00 | 0.00 | 0.00 | 68 | 1022.3 |
| 20260504034515 | 12 | 298 | 0.0 | 0.0 | 0.00 | 0.00 | 0.00 | 66 | 1022.5 |
| 20260504034012 | 12 | 298 | 0.0 | 0.0 | 0.00 | 0.00 | 0.00 | 67 | 1022.5 |
| 20260504033510 | 12 | 298 | 0.0 | 0.0 | 0.00 | 0.00 | 0.00 | 66 | 1022.5 |
| 20260504033007 | 13 | 298 | 0.0 | 0.0 | 0.00 | 0.00 | 0.00 | 67 | 1022.5 |
| 20260504032503 | 13 | 298 | 0.0 | 0.0 | 0.00 | 0.00 | 0.00 | 64 | 1022.6 |
| 20260504032000 | 13 | 298 | 0.0 | 0.0 | 0.00 | 0.00 | 0.00 | 64 | 1022.6 |
| 20260504031456 | 13 | 298 | 0.0 | 0.0 | 0.00 | 0.00 | 0.00 | 61 | 1022.5 |
| 20260504030954 | 13 | 298 | 0.0 | 0.0 | 0.00 | 0.00 | 0.00 | 63 | 1022.6 |
| 20260504030451 | 13 | 298 | 0.0 | 0.0 | 0.00 | 0.00 | 0.00 | 63 | 1022.5 |
| 20260504025946 | 13 | 298 | 0.0 | 0.0 | 0.00 | 0.00 | 0.00 | 64 | 1022.5 |
| 20260504025444 | 13 | 298 | 0.0 | 0.0 | 0.00 | 0.00 | 0.00 | 64 | 1022.5 |
| 20260504024941 | 13 | 300 | 0.0 | 0.0 | 0.00 | 0.00 | 0.00 | 62 | 1022.4 |
| 20260504024438 | 13 | 298 | 0.0 | 0.0 | 0.00 | 0.00 | 0.00 | 63 | 1022.4 |
| 20260504023935 | 13 | 298 | 0.0 | 0.0 | 0.00 | 0.00 | 0.00 | 64 | 1022.3 |
| 20260504023431 | 13 | 298 | 0.0 | 0.0 | 0.00 | 0.00 | 0.00 | 60 | 1022.4 |
| 20260504022927 | 13 | 298 | 0.0 | 1.6 | 0.00 | 0.00 | 0.00 | 62 | 1022.1 |
| 20260504022423 | 13 | 298 | 0.0 | 1.6 | 0.00 | 0.00 | 0.00 | 62 | 1022.2 |
| 20260504021920 | 13 | 298 | 0.0 | 0.0 | 0.00 | 0.00 | 0.00 | 63 | 1022.2 |
| 20260504021417 | 13 | 298 | 0.0 | 0.0 | 0.00 | 0.00 | 0.00 | 64 | 1022.2 |
| 20260504020915 | 13 | 298 | 0.0 | 0.0 | 0.00 | 0.00 | 0.00 | 66 | 1021.9 |
| 20260504020411 | 13 | 298 | 0.0 | 0.0 | 0.00 | 0.00 | 0.00 | 64 | 1021.9 |
| 20260504015908 | 13 | 298 | 0.0 | 0.0 | 0.00 | 0.00 | 0.00 | 64 | 1022.1 |
| 20260504015404 | 13 | 298 | 0.0 | 0.0 | 0.00 | 0.00 | 0.00 | 65 | 1022.1 |
| 20260504014900 | 13 | 300 | 0.0 | 0.0 | 0.00 | 0.00 | 0.00 | 65 | 1021.9 |
| 20260504014356 | 13 | 298 | 0.0 | 0.0 | 0.00 | 0.00 | 0.00 | 65 | 1022.0 |
| 20260504013853 | 13 | 300 | 0.0 | 0.0 | 0.00 | 0.00 | 0.00 | 65 | 1022.1 |
| 20260504013351 | 13 | 300 | 0.0 | 0.0 | 0.00 | 0.00 | 0.00 | 64 | 1022.1 |
| 20260504012847 | 13 | 300 | 0.0 | 0.0 | 0.00 | 0.00 | 0.00 | 64 | 1021.8 |
| 20260504012345 | 13 | 300 | 0.0 | 0.0 | 0.00 | 0.00 | 0.00 | 66 | 1021.7 |
| 20260504011843 | 13 | 300 | 0.0 | 0.0 | 0.00 | 0.00 | 0.00 | 65 | 1021.9 |
| 20260504011339 | 14 | 300 | 0.0 | 0.0 | 0.00 | 0.00 | 0.00 | 65 | 1021.8 |
| 20260504010835 | 14 | 300 | 0.0 | 0.0 | 0.00 | 0.00 | 0.00 | 63 | 1021.9 |
| 20260504010331 | 14 | 300 | 0.0 | 0.0 | 0.00 | 0.00 | 0.00 | 62 | 1021.7 |
| 20260504005828 | 14 | 302 | 0.0 | 0.0 | 0.00 | 0.00 | 0.00 | 61 | 1021.7 |
| 20260504005324 | 15 | 302 | 0.0 | 0.0 | 0.00 | 0.00 | 0.00 | 62 | 1021.7 |
| 20260504004822 | 15 | 302 | 0.0 | 0.0 | 0.00 | 0.00 | 0.00 | 62 | 1021.6 |
| 20260504004319 | 15 | 302 | 0.0 | 0.0 | 0.00 | 0.00 | 0.00 | 61 | 1021.3 |
| 20260504003815 | 15 | 302 | 0.0 | 0.0 | 0.00 | 0.00 | 0.00 | 61 | 1021.5 |
| 20260504003313 | 15 | 298 | 0.0 | 0.0 | 0.00 | 0.00 | 0.00 | 59 | 1021.5 |
| 20260504002809 | 16 | 298 | 0.0 | 0.0 | 0.00 | 0.00 | 0.00 | 59 | 1021.5 |
| 20260504002306 | 16 | 298 | 0.0 | 0.0 | 0.00 | 0.00 | 0.00 | 57 | 1021.2 |
| 20260504001804 | 16 | 298 | 0.0 | 0.0 | 0.00 | 0.00 | 0.00 | 56 | 1021.5 |
| 20260504001301 | 16 | 298 | 0.0 | 0.0 | 0.00 | 0.00 | 0.00 | 55 | 1021.5 |
| 20260504000758 | 17 | 298 | 0.0 | 0.0 | 0.00 | 0.00 | 0.00 | 53 | 1021.3 |
| 20260504000254 | 17 | 298 | 0.0 | 0.0 | 0.00 | 0.00 | 0.00 | 54 | 1021.5 |
| 20260503235752 | 17 | 298 | 0.0 | 0.0 | 0.00 | 0.00 | 0.00 | 47 | 1021.3 |
| 20260503235250 | 18 | 298 | 0.0 | 0.0 | 0.00 | 0.00 | 0.00 | 47 | 1021.5 |
| 20260503234747 | 18 | 298 | 0.0 | 0.0 | 0.00 | 0.00 | 0.00 | 46 | 1021.2 |
| 20260503234245 | 19 | 305 | 0.0 | 1.6 | 0.00 | 0.00 | 0.00 | 42 | 1021.2 |
| 20260503233742 | 20 | 300 | 0.0 | 0.0 | 0.00 | 0.00 | 0.00 | 43 | 1021.1 |
| 20260503233238 | 20 | 300 | 0.0 | 0.0 | 0.00 | 0.00 | 0.00 | 41 | 1021.1 |
| 20260503232735 | 20 | 300 | 0.0 | 1.6 | 0.00 | 0.00 | 0.00 | 39 | 1021.1 |
| 20260503232232 | 21 | 294 | 0.0 | 1.6 | 0.00 | 0.00 | 0.00 | 37 | 1021.2 |
| 20260503231730 | 20 | 294 | 1.6 | 1.6 | 0.00 | 0.00 | 0.00 | 39 | 1021.3 |
| 20260503231227 | 19 | 284 | 0.0 | 1.6 | 0.00 | 0.00 | 0.00 | 38 | 1021.3 |
| 20260503230723 | 19 | 284 | 0.0 | 3.2 | 0.00 | 0.00 | 0.00 | 44 | 1021.5 |
| 20260503230220 | 19 | 289 | 1.6 | 3.2 | 0.00 | 0.00 | 0.00 | 41 | 1021.3 |
| 20260503225718 | 19 | 301 | 0.0 | 1.6 | 0.00 | 0.00 | 0.00 | 40 | 1021.3 |
| 20260503225218 | 20 | 290 | 1.6 | 3.2 | 0.00 | 0.00 | 0.00 | 43 | 1021.3 |
| 20260503224715 | 20 | 286 | 1.6 | 8.0 | 0.00 | 0.00 | 0.00 | 40 | 1021.2 |
| 20260503224213 | 20 | 286 | 1.6 | 3.2 | 0.00 | 0.00 | 0.00 | 39 | 1021.5 |
| 20260503223710 | 20 | 296 | 1.6 | 3.2 | 0.00 | 0.00 | 0.00 | 39 | 1021.5 |
| 20260503223207 | 20 | 325 | 3.2 | 3.2 | 0.00 | 0.00 | 0.00 | 40 | 1021.3 |
| 20260503222704 | 20 | 279 | 1.6 | 3.2 | 0.00 | 0.00 | 0.00 | 38 | 1021.7 |
| 20260503222202 | 20 | 313 | 0.0 | 3.2 | 0.00 | 0.00 | 0.00 | 40 | 1021.7 |
| 20260503221700 | 20 | 296 | 1.6 | 3.2 | 0.00 | 0.00 | 0.00 | 39 | 1021.6 |
| 20260503221157 | 20 | 322 | 0.0 | 8.0 | 0.00 | 0.00 | 0.00 | 38 | 1021.7 |
| 20260503220654 | 20 | 320 | 3.2 | 8.0 | 0.00 | 0.00 | 0.00 | 40 | 1021.7 |
| 20260503220150 | 20 | 295 | 0.0 | 1.6 | 0.00 | 0.00 | 0.00 | 39 | 1021.7 |
| 20260503215647 | 20 | 307 | 0.0 | 4.8 | 0.00 | 0.00 | 0.00 | 39 | 1021.8 |